sat.trackr.live / text

‹ back to catalog

STARLINK-30531

NORAD 57998 · 2023-153H

PAYLOAD ACTIVE UNKNOWN

§ Identity

Operator
Country
US
Launch date
2023-10-05
Launch site
AFETR
Launch vehicle
Mass (kg)
RCS (m²)

Purposes: comms

External: N2YO · Heavens-Above · Gunter

§ Orbital elements

Epoch: 2026-05-24T23:14:57.444288Z

Period
94.27 min
Inclination
43.0073°
Eccentricity
0.0001913
Mean motion
15.27577670 rev/d
Perigee alt
481.7 km
Apogee alt
484.4 km
Semi-major
6,861.2 km
B*
2.3961e-5
RAAN
356.1548°
Arg perigee
267.8854°
Mean anomaly
92.1778°
Rev number
14,656

§ Raw data

STARLINK-305311 57998U 23153H   26144.96872042  .00000397  00000+0  23961-4 0  99902 57998  43.0073 356.1548 0001913 267.8854  92.1778 15.27577670146566

JSON: /api/v1/satellites/57998 · /tle

For live sub-satellite position, see the globe view (requires WebGL).

§ Visibility from observer

Set your observer location to see the next 7 days of passes ≥ 10°. The values pass through the URL so the page stays shareable.

No JS? Fill the form by hand. The geolocation button needs JavaScript.